Theta_e
337 337 336 335 334 334 334 334 335 336 335 334 334 335 334 338 343 344 345 342 336 334 334 333 333 333 332 333 332 332 332 331 331 331 331 331 331 331 331 331 331 331 331 331 330 331 331 331 331 330 329 328 325 323 321 319 317 317 317 317 317 317 317 317 317 317 318 318 317 317 317 317 317 317
337 337 336 335 335 335 335 335 335 335 334 334 334 335 335 336 339 340 342 342 337 334 334 333 333 333 332 333 332 332 332 332 332 331 331 331 330 330 331 331 331 331 331 331 331 331 331 331 331 330 330 329 328 327 325 323 321 319 318 317 317 317 318 318 318 317 317 318 318 318 318 317 317 317
337 337 337 337 337 337 336 335 335 334 334 335 335 335 336 336 337 337 338 341 338 334 334 334 333 333 334 334 333 332 332 332 332 332 331 330 330 330 331 331 331 331 331 331 331 331 331 331 332 332 331 330 329 328 327 327 326 324 322 320 319 319 319 319 319 318 317 317 317 318 318 318 318 317
336 336 337 338 337 336 335 335 335 335 335 335 335 336 336 336 337 337 337 339 338 334 334 334 333 333 333 332 332 331 331 331 331 332 331 331 331 331 331 331 331 331 331 331 331 331 331 332 332 332 332 331 330 330 329 329 328 328 327 326 325 324 324 322 321 320 319 319 318 317 317 318 318 318
335 336 337 337 336 335 334 334 335 334 334 335 335 335 335 335 336 337 337 337 337 335 334 333 333 332 332 332 332 332 332 332 332 332 332 332 331 331 331 332 332 332 331 332 332 332 332 332 332 332 331 331 331 330 330 330 329 329 329 328 328 328 327 326 324 322 322 321 320 319 317 317 317 318
335 335 335 335 335 334 334 334 335 334 334 335 335 335 335 335 336 336 336 336 336 336 335 334 333 333 333 334 334 334 334 334 334 333 333 333 332 332 332 331 331 331 331 331 331 332 333 332 332 332 331 331 331 330 330 330 329 329 328 328 327 327 327 326 325 324 324 323 322 321 320 319 318 318
336 336 335 335 335 335 335 335 335 335 335 335 335 335 335 335 335 335 335 335 336 335 334 334 333 334 334 335 335 335 335 335 334 334 334 333 333 332 331 331 330 330 330 330 330 331 332 332 332 332 332 331 331 331 330 329 329 328 328 327 326 326 326 325 325 325 325 324 323 323 322 322 321 321
336 336 336 336 335 335 335 335 335 335 335 335 335 335 335 334 334 334 334 334 334 334 334 335 335 335 336 336 335 334 333 333 333 333 333 333 332 331 331 330 330 330 330 330 330 331 331 331 331 330 330 330 330 330 330 329 328 328 328 328 327 327 327 326 326 326 325 325 324 324 324 323 323 323
335 336 336 335 334 334 334 334 335 335 335 335 335 335 335 334 333 333 333 334 335 335 336 336 336 336 336 336 335 334 332 332 332 332 332 331 330 330 330 330 329 329 330 331 331 331 331 330 330 329 330 330 330 330 330 329 329 329 328 328 328 328 327 327 327 326 326 326 325 325 325 324 324 324
335 335 335 335 334 334 334 335 335 336 335 335 335 335 335 334 334 334 334 335 336 336 337 336 335 336 336 335 335 334 333 333 332 331 330 330 329 329 329 329 329 329 329 330 330 330 329 329 329 329 329 330 330 330 330 329 329 329 329 328 328 328 328 328 327 327 326 326 326 326 325 325 324 324
337 336 335 336 335 334 335 335 335 335 335 334 335 335 334 334 334 334 333 334 335 336 336 335 335 334 334 335 335 334 333 333 332 331 331 331 329 329 329 329 329 329 329 328 329 328 328 328 329 329 329 328 328 328 328 328 328 328 328 328 328 328 328 328 328 327 327 327 326 326 326 325 325 325
338 337 336 336 335 334 335 335 335 335 335 335 335 335 334 334 334 333 333 334 336 336 335 335 335 335 334 334 334 334 333 332 331 330 330 330 329 329 329 329 329 329 328 328 328 327 327 327 327 328 327 327 327 328 328 328 328 328 328 328 328 328 328 328 328 328 328 328 327 327 326 326 325 325
338 338 337 337 335 335 336 335 334 335 335 335 335 335 335 334 335 335 335 335 335 334 333 333 332 333 333 334 333 333 332 331 330 329 329 329 329 329 329 329 328 328 327 327 327 327 327 327 327 328 328 329 329 329 329 328 327 326 325 325 325 326 327 328 328 328 328 327 327 326 326 325 325 325
339 338 337 337 336 336 336 334 333 334 335 335 335 335 334 333 334 335 335 334 333 332 331 331 331 331 331 332 332 332 331 330 329 329 329 329 329 329 329 329 327 327 326 327 327 326 324 325 326 326 326 325 325 324 324 323 322 322 321 322 323 325 326 326 326 326 326 326 326 325 324 324 323 323
339 338 337 336 336 336 334 332 333 334 334 333 333 332 332 331 332 333 333 332 332 331 331 331 331 331 330 330 330 330 330 329 329 329 329 329 329 328 328 328 327 326 325 325 325 323 319 319 321 321 320 320 320 321 321 320 321 322 322 323 323 324 324 324 324 324 324 325 325 323 322 322 321 321
338 337 336 336 336 334 330 327 331 334 333 332 332 331 331 331 332 333 333 333 332 332 333 333 332 331 330 329 329 329 329 329 329 329 329 329 328 327 327 327 327 325 323 322 322 321 318 318 320 320 320 321 321 321 321 321 322 323 323 323 323 324 324 324 324 323 321 321 321 320 320 320 319 318
338 337 336 335 334 331 327 327 331 334 333 332 332 331 331 331 331 332 333 332 332 332 333 333 333 333 331 330 330 330 330 330 329 330 329 328 327 327 326 325 324 322 320 320 321 321 321 321 322 322 322 321 322 321 321 322 322 321 321 321 322 323 323 322 321 319 318 318 318 318 318 318 317 317
337 335 334 333 332 329 328 331 333 333 332 331 331 331 331 330 329 330 330 330 329 330 332 333 334 334 332 331 331 330 330 330 330 329 328 326 324 323 322 321 320 319 318 319 321 322 322 322 322 322 322 321 322 322 321 321 320 319 319 318 319 320 319 318 317 317 316 316 316 316 316 316 317 318
336 332 330 331 331 330 331 332 331 330 330 331 331 332 332 331 330 329 329 329 330 331 332 332 332 332 331 330 330 330 330 330 329 327 324 322 321 320 320 319 319 319 319 320 322 322 322 322 322 322 322 321 321 320 319 318 318 317 317 317 316 316 315 314 314 314 314 315 316 317 318 319 320 321
334 330 329 331 332 330 329 329 330 331 331 332 332 332 331 331 331 330 330 331 332 332 331 331 330 330 330 331 330 330 329 328 326 323 321 320 319 319 319 319 319 320 320 320 321 322 322 322 321 320 318 317 317 316 316 315 315 314 313 313 312 313 313 313 314 315 317 318 319 320 320 321 322 322
334 331 330 332 330 327 327 328 329 331 332 332 332 331 331 332 331 331 331 332 331 330 330 329 329 328 328 328 327 327 326 324 322 321 321 320 320 320 319 320 320 320 320 321 322 321 321 319 317 316 315 314 314 314 313 313 312 311 312 313 314 315 316 317 318 320 320 321 321 321 321 322 322 323
333 331 330 329 326 325 327 327 327 328 330 331 331 331 332 332 331 331 332 331 330 329 329 328 327 327 326 326 325 324 323 321 320 320 320 320 320 320 319 320 320 320 321 322 321 319 317 315 314 314 314 313 313 313 313 313 313 314 315 316 317 318 319 320 321 321 321 321 321 321 322 322 322 322
332 330 329 327 326 327 328 326 325 327 330 331 331 332 332 332 332 333 331 330 329 329 328 328 327 326 325 324 322 320 319 319 319 320 321 321 321 321 320 321 321 322 322 321 318 315 314 314 314 314 314 314 313 313 314 314 315 316 317 318 319 320 320 320 320 321 320 320 321 321 322 321 321 321
331 329 328 327 327 327 327 326 327 329 330 332 332 332 332 332 332 332 330 329 329 328 327 326 324 323 322 320 319 318 318 319 320 320 320 320 320 320 320 320 320 319 318 316 314 314 315 314 314 314 314 314 314 314 314 315 316 317 318 319 320 320 320 320 320 320 320 320 320 320 320 320 321 321
329 329 328 327 327 327 326 326 329 331 331 332 332 332 332 332 332 331 329 327 326 324 324 322 321 320 319 317 317 318 320 320 319 318 317 316 315 315 316 316 315 315 314 313 312 313 314 314 314 313 314 314 314 314 315 316 317 318 319 320 321 321 320 320 320 320 319 319 319 320 320 320 321 321
329 328 328 328 328 327 326 328 331 331 330 331 331 331 331 330 329 327 324 322 321 321 320 319 318 317 316 316 318 319 319 318 317 316 315 314 313 312 312 312 313 314 313 311 310 311 313 313 313 313 314 314 314 315 316 318 319 320 321 321 321 321 320 320 320 319 319 319 319 320 320 320 320 321
329 329 329 330 330 329 330 332 332 331 331 331 330 330 328 326 324 322 321 320 319 318 317 316 316 316 317 319 319 318 316 315 315 315 314 313 312 311 311 311 312 312 311 311 310 310 311 312 312 313 314 314 315 317 319 320 321 321 321 321 320 320 321 320 320 319 319 319 319 320 320 320 320 320
329 330 332 333 333 332 332 333 331 330 329 328 326 325 324 322 320 320 319 318 317 316 316 317 318 319 320 319 317 315 315 315 315 314 312 311 311 311 311 311 311 310 310 310 309 309 310 311 312 313 314 315 317 319 320 321 321 320 320 320 320 320 321 320 320 319 319 319 319 320 320 320 319 320
331 333 334 334 334 333 331 330 329 326 324 321 320 321 320 319 319 318 317 317 316 316 317 318 319 320 319 317 315 315 315 315 313 311 310 310 311 311 310 310 309 309 309 308 309 309 310 310 312 313 314 316 318 320 321 320 320 320 320 320 320 320 320 320 319 319 319 319 319 319 319 319 319 319
334 334 334 334 334 332 330 328 325 322 320 319 319 319 318 318 318 317 316 317 316 317 318 319 319 319 319 317 315 314 314 312 310 309 309 310 310 309 309 309 308 308 308 309 309 310 311 312 314 316 317 318 319 320 320 320 320 320 320 320 321 320 320 319 319 319 318 318 318 318 318 318 318 318
333 333 332 332 332 330 327 324 321 320 320 319 319 319 319 318 317 317 318 317 317 318 318 318 319 319 318 316 314 313 312 310 309 309 309 309 309 308 308 308 308 308 308 309 309 310 311 313 315 316 317 318 318 319 319 320 320 320 320 320 320 320 319 319 318 318 317 317 317 317 317 317 317 318
331 331 331 330 329 327 324 322 320 320 320 320 320 320 319 319 319 319 318 318 318 319 319 319 320 320 317 315 313 311 310 309 309 308 308 308 308 307 307 308 309 309 309 309 310 310 310 311 312 313 314 315 317 318 319 320 320 320 320 319 319 319 319 318 318 317 317 316 316 316 317 317 317 318
330 330 329 327 326 325 323 321 320 320 321 321 320 320 320 320 320 320 320 320 320 319 319 319 318 316 314 312 310 309 309 308 308 308 308 307 307 307 308 309 309 309 310 310 310 309 308 309 310 310 311 314 317 319 320 320 320 319 319 319 319 318 318 317 317 317 316 316 316 316 316 316 317 318
329 328 327 326 326 325 323 322 321 321 321 321 321 321 321 321 321 321 321 321 319 316 315 314 312 311 310 309 309 308 308 308 308 308 307 307 307 308 309 309 309 309 310 309 309 308 308 309 309 309 312 316 318 318 318 319 319 318 318 318 318 317 317 317 316 316 315 315 315 316 316 316 317 317
328 327 326 325 325 324 322 323 323 322 322 322 322 322 321 321 322 322 320 317 315 313 312 310 309 308 308 308 308 309 308 308 308 307 307 307 308 308 308 309 309 309 308 308 308 308 308 309 309 311 315 318 318 317 317 318 318 318 317 317 317 317 317 316 315 315 314 314 315 315 316 316 316 315
327 326 326 325 325 325 325 325 325 324 324 324 324 323 321 321 322 321 317 314 313 312 310 308 307 308 308 308 308 308 307 307 307 307 308 308 307 307 308 308 308 308 307 308 308 308 309 309 310 314 318 319 318 318 318 318 317 318 317 317 317 317 316 315 314 314 314 314 314 315 315 315 314 313
327 327 327 326 326 326 325 324 323 322 322 321 321 320 319 318 319 317 315 312 311 309 308 308 307 307 307 307 306 306 307 307 308 308 308 307 307 307 307 307 307 307 307 308 308 308 309 310 312 315 318 319 319 319 318 317 317 317 317 317 316 316 315 314 313 313 313 313 313 314 314 313 313 312
328 328 327 325 324 323 321 320 320 319 318 318 317 317 317 316 315 314 312 311 310 309 309 308 308 308 307 306 305 306 307 308 308 308 307 306 306 307 307 306 307 307 308 308 308 308 309 311 313 314 316 319 320 319 318 318 318 317 316 315 315 314 313 312 312 312 312 312 312 312 312 311 311 311
327 326 324 323 322 321 320 319 319 318 318 318 317 317 316 316 314 313 312 312 311 309 307 307 307 307 306 305 305 306 307 308 307 306 306 306 306 306 306 306 307 307 308 308 308 308 309 311 311 311 313 318 319 318 318 319 318 316 314 314 313 313 312 311 311 311 311 311 311 311 310 310 310 310
325 323 322 321 321 320 319 318 318 318 317 317 316 315 315 314 314 313 313 312 310 308 305 304 304 305 305 306 306 307 307 306 306 305 305 306 305 305 306 306 307 308 308 308 308 308 309 310 309 309 312 316 318 317 318 318 316 315 313 312 311 310 310 310 310 310 310 310 310 309 309 309 309 309
321 320 320 320 320 319 319 318 318 317 317 316 315 314 314 313 313 312 311 310 308 307 306 306 306 307 308 308 307 306 306 305 305 305 305 305 305 305 306 307 307 307 307 307 308 308 308 308 308 309 312 316 317 317 317 317 315 314 313 312 310 309 309 309 309 309 309 309 308 307 307 308 308 309
320 320 320 320 319 318 318 317 317 317 316 316 315 314 314 313 312 311 309 308 307 306 307 307 308 308 307 307 306 306 305 304 304 304 304 304 305 305 306 306 307 307 307 307 308 307 307 307 308 310 313 316 317 316 317 316 315 314 313 311 310 309 308 308 308 307 308 307 306 306 306 307 307 308
322 322 321 320 319 318 317 317 317 317 316 315 314 314 313 312 311 309 307 306 306 306 306 307 308 307 306 305 306 305 304 303 303 304 305 305 305 305 306 306 306 306 306 307 307 306 306 306 307 309 313 316 316 316 316 316 315 314 313 311 309 308 308 308 307 307 307 306 305 305 305 305 306 307
323 322 321 320 319 318 318 318 317 316 315 314 314 313 312 311 309 308 306 305 304 304 305 306 306 306 305 305 305 304 304 303 304 304 305 305 305 305 306 306 306 306 306 306 307 306 306 306 306 308 313 316 316 316 316 315 314 314 312 310 309 308 308 308 307 306 306 306 304 304 304 304 304 305
322 321 320 319 318 317 318 318 317 316 315 314 313 312 311 309 308 307 305 304 304 304 304 305 305 306 305 305 304 304 303 304 304 305 305 304 305 305 306 306 305 305 305 306 306 306 306 306 306 308 313 316 316 315 314 314 314 313 311 309 308 308 307 307 307 307 306 305 304 303 303 303 303 304
Wind_Speed
14 12 13 12 9 7 5 5 4 4 4 4 3 4 5 5 4 2 1 3 3 5 7 7 5 4 4 8 10 10 11 12 12 13 15 15 15 16 17 17 18 19 20 21 20 20 21 21 21 22 22 23 23 22 22 23 23 22 21 21 21 20 20 20 19 19 18 17 17 16 15 15 15 16
15 13 13 13 12 9 7 6 5 5 5 5 4 3 4 6 6 6 4 3 5 9 10 8 4 4 5 6 8 10 12 14 14 14 15 16 17 18 19 19 20 20 20 20 21 22 23 23 24 24 25 25 24 23 22 23 24 25 25 25 25 25 25 24 23 23 22 21 20 19 18 18 17 16
19 15 13 12 13 12 10 9 7 6 7 7 7 5 6 7 8 10 8 3 5 9 9 9 8 8 8 10 11 13 14 16 16 17 17 18 19 20 22 23 23 22 21 21 22 23 24 24 24 24 24 23 23 22 22 22 22 23 24 25 25 26 27 27 27 26 25 24 24 23 22 21 19 18
21 19 16 14 14 13 12 12 11 10 9 10 9 8 8 9 10 12 12 7 7 11 11 12 12 11 12 14 14 15 16 15 16 18 19 20 20 21 22 23 23 23 22 22 23 23 24 23 23 23 24 24 24 23 23 24 24 24 25 25 26 26 27 28 28 28 28 26 26 26 25 24 22 20
22 21 21 19 17 15 15 16 15 13 12 11 11 9 9 11 12 13 14 11 10 12 13 13 13 13 13 15 15 15 15 15 15 16 18 19 20 20 21 21 22 22 23 24 24 24 24 24 24 24 23 24 25 25 26 26 26 27 28 28 28 29 28 27 26 27 27 27 26 26 26 26 25 23
23 21 22 21 19 18 17 17 16 15 15 14 12 12 11 13 15 15 15 14 12 12 13 13 14 15 14 15 15 14 15 16 17 18 19 19 20 20 21 22 22 22 23 24 25 25 25 24 25 25 24 25 26 26 27 27 28 28 28 28 28 28 28 27 25 25 25 25 25 24 24 24 25 25
24 23 24 23 21 19 18 17 16 16 15 14 13 14 13 13 13 14 13 13 13 13 14 14 14 15 15 16 16 15 16 17 19 19 19 19 20 21 22 22 22 21 21 22 23 24 25 25 25 26 26 27 27 28 28 28 28 27 27 26 26 27 27 28 27 27 25 25 24 23 23 23 24 25
27 25 25 24 22 21 19 18 17 16 15 15 14 15 15 13 11 11 11 12 13 13 13 14 16 16 17 18 18 18 18 19 19 19 19 19 20 21 21 22 21 20 21 22 23 23 24 25 25 26 27 27 28 29 29 28 28 28 28 28 28 28 29 29 30 30 29 28 27 26 26 25 24 24
30 29 27 24 22 21 19 18 18 17 15 15 15 15 16 15 12 11 11 12 12 12 13 15 18 18 18 20 21 19 19 20 20 19 19 20 21 22 22 21 21 20 21 22 22 23 24 24 25 26 26 26 27 28 28 28 28 29 29 30 30 30 31 31 32 32 32 31 31 30 30 28 28 27
32 31 29 26 23 21 20 19 18 16 15 15 15 16 16 16 14 11 10 11 12 13 14 16 19 20 20 21 21 19 18 19 20 20 21 22 21 21 21 21 20 20 20 20 21 22 24 26 26 27 26 26 27 27 28 28 29 30 31 31 32 32 32 33 33 33 33 33 33 33 32 31 31 31
32 30 28 26 23 21 20 19 17 14 14 14 15 16 16 16 14 11 9 10 12 13 14 16 18 20 21 20 20 19 17 17 18 19 20 21 20 20 20 20 19 19 19 20 21 23 24 26 26 26 27 27 27 28 28 29 30 30 31 31 32 32 33 33 33 33 33 34 34 34 33 33 33 33
28 27 26 24 22 20 19 18 16 14 14 14 14 14 15 15 13 11 10 10 10 10 11 14 16 18 20 20 20 18 17 16 16 16 15 16 18 19 18 18 18 19 21 23 24 24 24 25 26 26 26 26 25 25 26 26 27 28 29 30 31 32 33 32 32 32 33 33 33 33 33 33 32 32
25 25 24 21 19 18 17 16 15 14 14 14 14 13 12 12 11 11 10 9 8 9 10 13 16 16 18 20 19 17 16 15 15 15 15 16 17 18 20 22 23 24 24 25 24 23 22 23 24 23 22 22 22 23 24 26 28 30 31 32 32 31 31 30 29 30 31 31 31 31 30 29 29 30
24 23 21 18 17 17 16 15 15 14 14 16 16 14 13 12 12 11 11 11 11 11 13 15 16 15 17 20 19 17 17 16 16 17 16 16 17 19 20 22 26 26 23 21 22 23 24 25 26 25 25 27 27 27 28 28 29 29 29 29 30 29 29 28 28 29 30 31 30 29 28 28 29 30
22 20 19 18 18 18 17 17 16 14 14 15 16 16 16 16 15 15 16 17 17 16 15 17 17 16 18 21 20 19 19 19 18 17 15 15 18 18 15 16 21 25 24 23 25 29 30 30 30 30 29 28 27 25 25 25 25 25 26 27 28 28 29 29 30 30 31 31 30 29 29 30 31 32
22 21 20 20 19 18 18 18 17 15 15 15 14 15 16 16 17 17 18 19 19 18 18 18 19 20 20 20 21 22 20 19 17 16 16 16 17 17 15 14 19 25 28 27 28 30 30 29 28 29 27 25 24 24 23 23 23 24 25 26 27 29 30 30 30 29 27 27 28 29 30 32 34 36
23 22 21 21 21 20 19 18 17 16 15 14 14 14 14 14 15 15 16 17 18 20 20 21 23 24 22 20 22 23 20 17 17 16 17 18 18 18 18 19 23 28 29 27 27 28 28 27 26 27 26 25 24 23 23 22 22 23 24 25 26 27 28 28 28 28 28 29 30 32 34 36 37 39
23 23 24 24 22 21 19 18 16 15 14 13 14 14 14 14 14 16 17 18 19 21 21 22 24 24 22 22 24 24 22 20 18 17 17 18 20 21 22 24 27 27 26 26 25 24 25 25 23 25 27 26 25 25 24 23 22 21 22 23 24 26 28 29 30 31 32 33 34 35 37 37 38 39
25 26 27 25 22 20 18 16 15 15 14 14 15 15 15 16 16 17 18 18 19 20 20 20 20 20 20 22 22 22 22 21 18 16 17 19 21 23 23 25 27 26 26 27 23 21 22 23 22 24 26 25 24 24 24 23 21 22 23 26 29 31 32 33 33 33 34 34 35 37 37 37 38 39
25 26 26 23 19 17 16 15 15 15 14 15 15 15 16 16 17 18 18 17 17 17 17 18 19 20 22 22 21 19 17 16 15 17 20 20 21 21 20 21 25 26 26 26 23 23 23 21 20 22 22 21 23 27 26 25 25 27 30 31 32 32 32 32 32 32 33 34 35 36 37 38 40 42
24 24 23 20 16 16 16 16 15 14 14 15 16 16 16 16 18 19 17 13 12 11 12 12 14 15 16 16 14 13 14 15 18 21 21 20 21 20 17 16 20 24 25 26 24 22 20 18 20 22 23 23 26 28 27 27 28 30 31 30 29 29 30 30 31 32 34 35 36 37 38 40 42 44
22 22 21 18 16 17 18 17 16 15 15 16 16 16 15 15 16 16 14 10 9 10 11 11 11 11 10 10 11 14 17 19 20 20 20 22 23 21 17 16 19 21 22 22 19 17 19 22 24 25 26 26 26 26 25 28 31 31 30 30 30 30 31 31 32 34 35 36 37 38 39 41 42 44
20 20 19 18 16 16 17 18 18 16 16 17 17 16 14 13 13 13 11 10 11 13 14 15 15 15 15 16 17 17 17 16 17 19 23 25 25 24 21 19 16 12 11 14 16 18 22 24 24 24 21 18 20 24 27 29 31 32 31 31 31 32 32 32 33 34 35 35 36 37 39 40 42 44
20 19 19 17 16 17 18 19 18 16 15 16 16 14 13 11 11 12 13 13 13 15 16 17 18 19 19 19 17 15 14 14 15 16 16 16 16 16 17 17 14 10 12 17 21 21 21 21 22 25 21 14 14 23 29 30 31 31 31 32 32 32 32 31 32 33 34 35 36 37 39 40 40 41
21 20 19 18 18 19 20 19 18 16 16 15 14 13 12 11 12 14 15 15 16 17 18 19 19 19 18 16 14 14 14 12 10 9 9 10 13 13 14 15 16 16 19 22 23 23 23 23 24 26 25 20 19 23 28 30 31 31 31 32 32 32 31 31 31 33 34 36 37 38 39 39 39 39
20 19 19 19 20 20 19 19 18 17 15 13 13 12 11 11 13 14 15 16 17 17 17 16 16 15 15 14 12 12 12 9 8 10 13 17 19 20 19 18 18 20 23 24 25 25 25 26 26 25 23 22 22 23 23 26 30 32 31 31 31 31 31 30 31 34 36 37 38 38 39 39 40 40
19 20 20 20 19 18 17 17 16 13 10 9 9 9 9 10 12 13 14 14 14 15 14 13 13 13 11 11 11 11 12 13 14 17 20 22 22 20 20 19 19 21 23 24 25 26 26 27 29 28 26 23 22 20 19 22 28 31 30 31 32 31 31 31 32 35 37 37 38 39 39 40 40 40
19 20 21 19 17 16 15 13 11 8 6 6 7 8 10 10 11 11 12 12 12 12 11 9 10 10 9 10 11 12 13 14 16 19 21 21 19 17 18 20 20 21 23 24 26 27 28 29 30 31 29 25 21 18 17 21 27 30 30 30 31 32 32 32 32 34 36 37 38 38 38 38 39 39
18 18 18 16 14 13 11 10 7 5 3 5 7 8 8 9 8 8 9 9 10 9 8 8 9 10 11 11 11 10 10 12 16 18 19 18 17 17 19 20 21 21 23 25 25 26 27 29 30 30 29 27 24 22 23 24 27 29 30 29 30 33 34 31 30 33 35 37 38 37 37 38 39 39
15 14 13 13 13 11 10 8 6 4 4 5 6 6 7 7 7 7 8 10 11 11 11 12 13 14 14 12 10 8 10 14 16 16 16 17 18 19 19 21 23 23 23 23 24 25 25 25 25 25 25 25 25 26 27 26 26 29 31 30 30 32 32 30 30 32 34 36 37 37 38 39 40 40
15 13 12 12 12 11 9 8 7 7 8 8 8 8 9 8 8 9 10 11 12 13 14 16 17 17 14 10 9 10 14 16 15 13 14 17 18 19 21 23 25 25 25 23 23 22 22 21 21 22 24 26 26 27 28 27 26 28 31 31 30 30 32 33 33 32 32 34 36 38 39 40 40 40
14 13 12 12 13 12 10 9 10 11 12 11 11 11 11 11 11 12 12 13 14 15 17 19 20 16 10 8 10 13 15 14 13 12 14 16 18 21 22 22 23 26 27 26 24 22 22 23 23 24 26 27 26 27 28 28 27 28 29 30 30 30 33 35 34 34 35 35 36 38 39 40 41 40
15 14 14 15 15 13 12 12 13 15 15 14 13 14 14 14 14 14 14 15 14 12 12 12 10 8 7 9 11 12 12 12 12 12 13 16 19 21 21 20 22 25 25 25 25 24 25 26 26 28 29 25 22 22 23 25 28 28 28 28 28 30 32 33 34 36 37 35 35 37 39 39 39 37
18 18 17 16 16 15 15 16 18 19 19 18 17 16 15 15 15 15 14 11 7 4 3 2 1 3 6 8 9 9 11 13 13 12 14 17 19 20 21 21 22 22 22 22 24 27 28 29 30 31 28 22 19 21 21 19 22 26 28 27 27 29 31 33 35 37 36 34 34 35 37 39 39 36
20 20 18 17 17 17 18 19 20 20 20 20 20 19 16 15 16 14 10 9 7 5 2 2 3 3 5 7 8 10 11 12 13 14 15 17 18 19 20 20 20 20 20 22 25 28 29 30 31 28 22 18 19 23 23 18 17 22 28 28 27 29 32 34 36 37 36 34 33 32 32 35 38 40
21 20 19 17 18 19 20 21 21 21 22 22 22 20 16 13 14 15 13 9 5 2 2 3 4 4 5 7 9 10 11 12 14 16 17 17 18 19 20 19 19 21 22 24 26 28 28 29 28 21 14 10 10 12 18 23 22 20 24 28 29 30 32 35 36 35 33 32 31 30 28 29 36 43
21 20 19 16 15 14 14 12 10 9 10 9 9 9 6 6 10 12 9 6 4 3 2 3 4 4 4 7 9 10 11 13 15 16 16 17 18 18 18 19 21 23 24 25 25 26 27 27 25 18 11 7 5 5 14 25 27 22 20 25 28 30 31 33 34 33 31 31 30 29 28 29 36 42
21 17 14 12 9 5 3 2 3 4 5 4 3 2 3 4 9 10 8 6 4 2 3 4 3 2 4 7 9 10 12 14 14 14 15 17 18 17 18 21 23 24 25 24 24 25 25 24 23 21 15 8 5 6 10 18 24 25 24 24 26 29 30 31 31 31 32 31 29 28 28 30 35 38
20 15 11 9 7 3 3 4 4 4 4 3 1 1 3 4 8 8 5 2 2 5 7 6 5 6 8 8 8 10 13 14 13 14 17 17 17 18 20 23 23 23 23 23 23 25 25 22 22 25 22 14 11 14 15 17 21 26 26 24 24 26 28 30 31 31 31 31 30 30 30 30 31 32
18 15 12 10 7 5 5 5 3 2 2 3 3 3 4 4 4 3 0 3 6 8 7 6 5 5 6 6 7 10 12 12 12 15 17 16 17 20 22 23 22 22 21 21 22 23 24 23 25 28 26 21 19 22 22 20 21 24 27 27 26 26 27 28 30 31 31 31 31 31 29 28 30 31
16 14 12 10 8 6 5 3 2 3 4 5 4 4 4 4 2 1 4 6 7 7 5 5 5 4 5 7 8 9 10 11 13 15 16 17 19 22 22 21 21 21 20 20 22 23 23 26 28 27 24 21 22 21 17 13 14 21 27 30 30 30 29 28 29 31 31 30 30 28 25 24 26 27
13 13 12 11 10 8 5 4 3 4 4 4 2 2 2 2 2 3 5 6 6 5 5 5 5 4 6 7 7 8 10 12 13 14 17 19 21 21 21 20 21 21 21 21 22 24 25 27 29 26 22 19 18 15 9 8 12 19 25 29 31 33 31 30 31 31 28 27 27 25 23 21 17 15
13 13 13 12 11 8 6 6 6 5 4 2 0 1 1 1 3 4 5 6 6 7 8 7 4 3 5 6 6 8 10 12 13 16 18 19 19 20 20 21 21 22 24 24 23 25 27 28 29 27 22 18 15 12 10 13 16 19 23 27 30 33 33 31 33 33 29 27 28 27 24 21 16 12
13 13 13 11 9 9 8 8 8 6 4 2 2 1 1 1 2 3 4 5 6 7 7 6 4 4 4 5 6 9 11 12 14 17 18 17 18 19 20 20 21 23 25 25 25 26 27 29 29 26 20 15 14 12 12 15 17 18 21 25 28 31 32 31 32 34 32 30 32 31 27 23 19 16
12 12 11 8 7 7 8 8 7 5 4 4 5 3 1 1 1 2 3 5 7 7 6 4 3 2 2 4 7 9 11 12 15 16 16 16 18 19 18 19 21 23 24 25 26 27 27 29 29 25 18 14 13 13 13 16 16 17 21 25 27 28 29 29 30 31 31 30 33 33 30 26 23 20
Wind_Direction
206 209 211 214 217 216 202 194 195 209 214 201 180 163 159 166 170 177 261 262 252 270 290 306 318 319 287 255 248 256 268 274 273 268 270 277 277 273 274 274 274 276 278 279 278 277 277 277 276 278 280 282 282 279 276 272 271 270 270 273 277 280 282 282 283 284 284 283 282 281 281 280 278 275
208 211 211 217 222 216 209 202 192 193 210 216 209 192 187 195 196 193 206 244 253 264 284 293 292 316 316 287 270 273 283 287 281 275 277 282 286 287 284 282 280 279 277 277 278 279 279 278 277 278 280 282 281 278 276 272 270 269 269 271 275 278 280 280 279 279 279 280 281 280 280 280 278 277
208 209 207 211 214 210 202 193 192 198 204 208 209 206 209 218 222 215 206 212 246 254 273 278 275 289 295 290 287 285 289 290 282 275 277 282 286 287 287 288 288 287 284 280 280 281 281 281 281 280 280 279 277 276 276 276 275 273 271 272 273 275 278 280 280 279 278 278 278 279 280 280 279 275
210 211 210 208 203 200 198 197 200 200 199 202 204 212 226 229 231 225 214 212 242 251 264 275 277 280 282 283 286 286 288 291 286 279 275 277 280 281 283 287 289 289 290 288 286 285 283 282 283 283 282 280 277 276 275 275 275 275 274 273 273 275 277 279 280 280 280 278 276 276 277 279 279 275
212 213 214 214 211 208 207 206 204 202 203 208 209 212 226 229 226 222 217 220 243 257 265 274 280 284 285 285 287 289 288 288 287 282 277 275 276 275 276 278 280 283 287 289 289 288 286 284 283 283 283 280 278 276 275 274 273 274 276 275 275 276 277 278 277 277 279 278 276 274 274 275 277 274
211 215 215 215 216 214 212 210 209 208 207 207 207 210 222 231 229 225 225 228 239 256 266 273 281 286 285 283 285 288 286 285 286 285 281 279 276 274 275 276 278 280 282 283 283 283 284 284 284 284 282 281 280 280 278 277 276 277 278 278 278 277 277 276 275 276 277 277 276 274 273 274 275 273
209 216 217 215 214 211 211 214 214 215 213 212 213 216 224 230 225 221 226 231 238 254 268 276 281 285 285 283 286 289 287 286 287 287 285 282 278 276 277 277 279 282 283 282 281 279 279 279 281 281 282 282 283 283 283 282 281 279 278 278 278 278 278 277 276 276 276 275 276 275 274 274 274 273
210 214 213 211 208 208 211 216 218 221 222 223 223 224 226 222 213 215 227 239 251 262 272 280 284 286 287 286 289 294 294 290 288 287 287 286 284 282 280 278 279 283 285 284 281 279 278 279 280 281 283 283 283 284 284 283 282 281 279 279 279 279 278 277 276 276 275 275 275 275 275 275 275 274
213 215 215 214 212 213 216 218 220 223 224 225 229 231 232 230 225 230 240 251 260 262 268 280 285 285 284 284 289 293 293 290 287 286 287 289 289 287 283 280 280 283 285 283 280 279 279 281 282 282 283 283 282 283 283 282 282 281 281 281 281 280 279 278 278 277 276 275 274 274 274 274 275 275
217 219 220 221 220 218 219 219 218 221 225 229 231 232 237 239 232 228 238 254 261 260 267 277 281 281 283 286 288 289 287 284 283 287 292 295 294 289 286 284 284 285 286 284 282 282 284 286 286 284 283 282 281 281 281 281 282 282 283 281 281 280 280 279 279 278 277 276 275 276 275 275 274 274
219 220 221 221 221 220 220 220 218 221 228 234 236 239 243 240 229 226 243 258 262 266 272 276 277 282 288 288 284 285 286 280 279 286 291 294 299 300 294 290 290 290 288 288 287 287 287 288 287 285 283 282 282 281 280 280 281 282 282 280 279 279 279 278 277 278 278 278 277 277 277 275 274 275
216 218 220 221 222 221 220 223 225 228 235 239 242 243 241 235 233 240 248 252 259 268 272 276 280 286 289 285 281 283 284 280 283 294 295 294 302 307 301 296 297 299 299 298 297 296 294 291 288 288 287 287 286 284 282 281 280 280 279 279 280 280 280 278 277 278 280 280 280 280 278 276 275 276
218 219 220 220 222 222 222 226 231 238 246 249 246 240 234 235 243 245 239 238 251 264 272 279 284 286 284 282 281 283 284 285 291 301 304 301 302 306 305 300 298 301 305 305 303 301 298 295 293 292 290 287 285 283 281 280 279 279 280 281 282 282 281 280 278 278 279 280 282 282 281 279 277 276
216 215 213 214 219 224 225 225 230 241 250 249 247 244 244 248 248 245 243 247 257 267 274 277 280 278 276 277 280 282 285 289 294 297 300 301 303 307 307 303 301 303 305 303 301 298 295 293 292 291 289 287 285 284 282 281 281 283 285 285 284 283 281 281 281 281 280 279 280 280 280 280 280 280
202 203 205 211 218 223 223 223 229 241 247 247 248 250 252 254 253 254 258 260 265 271 273 274 273 268 269 276 281 284 286 288 289 289 291 297 303 304 302 299 300 303 303 301 297 294 294 294 293 294 294 293 293 294 292 292 292 291 290 289 288 286 285 286 287 288 286 283 281 282 283 283 283 283
193 197 203 211 219 223 223 225 233 245 250 252 252 251 252 254 256 260 262 263 268 273 272 270 270 267 268 275 283 286 287 286 285 284 289 296 296 290 285 282 287 296 300 298 293 292 297 300 296 294 297 301 303 304 303 301 299 297 297 297 294 291 289 289 289 291 292 289 286 286 287 286 286 287
193 200 207 214 221 225 226 229 237 245 249 251 250 250 251 255 259 262 265 269 274 276 274 270 272 274 273 274 282 286 284 281 283 285 288 293 289 284 282 281 286 295 299 295 289 288 294 297 292 289 298 306 306 304 302 301 299 300 302 301 298 294 292 292 293 295 295 294 291 290 290 289 289 290
199 209 214 217 220 224 228 230 234 240 246 248 249 250 250 255 262 262 264 271 277 279 277 272 272 278 279 277 281 285 282 280 283 284 286 291 290 287 288 289 292 297 300 297 290 284 287 293 290 289 299 306 303 300 299 298 299 301 301 300 299 297 297 297 297 297 296 295 293 292 291 290 289 287
205 212 216 217 219 222 226 230 235 241 247 249 251 252 253 256 260 261 264 273 280 282 281 276 276 283 286 284 285 286 284 281 281 285 292 295 293 291 291 293 292 294 300 300 288 276 286 297 295 295 303 308 304 302 302 302 304 304 302 299 297 296 296 296 295 294 293 292 291 290 288 286 284 284
205 210 214 216 217 221 228 235 239 240 244 248 249 253 259 264 267 270 273 278 283 284 282 281 283 284 284 284 284 284 282 279 283 295 298 296 295 293 289 288 288 289 297 301 290 280 289 302 306 307 314 317 310 307 307 307 306 304 301 299 297 296 295 294 293 292 292 291 290 289 287 285 285 285
199 206 212 215 218 227 234 238 239 240 242 243 245 252 264 272 277 281 283 283 284 283 283 286 289 287 285 283 281 281 282 287 296 299 296 295 296 292 285 283 284 286 294 301 297 290 296 315 323 320 320 319 313 309 308 308 307 306 304 302 300 299 298 296 295 295 295 294 292 290 288 287 287 287
200 206 212 218 226 233 237 240 247 249 243 241 246 255 264 271 278 284 285 278 269 267 270 278 285 291 293 290 288 291 292 295 299 295 291 294 291 282 275 277 282 288 294 299 302 307 315 324 326 324 321 315 310 308 310 311 310 309 308 307 305 303 301 298 297 296 296 295 292 290 289 288 288 288
202 208 214 223 232 237 240 245 252 253 246 244 251 257 259 266 274 276 272 265 265 268 271 277 284 290 295 298 300 301 298 298 300 296 294 294 286 276 274 280 286 294 297 301 311 318 318 318 320 322 320 312 308 310 310 309 308 308 307 305 303 301 300 298 297 297 296 295 293 291 290 289 290 288
209 216 224 232 237 241 244 247 251 254 251 249 253 255 254 256 257 256 258 263 270 276 280 285 291 296 301 304 305 303 302 305 308 305 303 303 297 284 281 285 290 287 291 306 316 316 312 312 313 311 307 296 298 305 304 302 303 303 302 300 299 299 300 298 297 297 297 297 295 294 292 293 292 289
219 224 231 235 235 239 245 247 248 252 252 250 250 250 248 247 248 254 265 273 279 283 287 292 297 301 303 303 301 303 306 308 312 313 318 327 326 317 308 304 300 296 301 314 321 316 309 306 304 303 299 291 286 293 298 299 299 299 301 299 297 297 298 297 296 298 300 300 298 296 295 295 294 290
221 227 232 235 237 242 245 244 244 248 250 245 244 246 248 253 258 267 278 284 287 290 294 298 300 301 301 300 303 310 314 314 315 313 314 318 319 318 317 315 312 309 312 317 318 312 304 299 297 295 291 288 288 290 293 296 297 300 301 300 297 296 296 295 296 300 302 302 300 298 297 295 294 292
222 230 233 236 239 241 240 239 239 242 241 238 242 250 257 264 270 278 285 290 292 295 298 299 298 299 301 301 303 308 309 309 309 310 312 317 319 318 317 315 313 311 311 312 311 307 300 295 294 292 286 285 290 292 290 291 296 300 300 299 299 298 296 296 298 301 303 302 300 299 297 296 294 293
226 229 230 232 235 235 234 232 229 224 227 248 262 266 265 269 276 282 286 289 292 294 293 292 294 295 288 286 293 301 302 301 303 308 312 317 320 319 315 313 311 310 308 307 305 305 301 294 292 291 288 285 285 287 288 290 294 298 300 300 300 299 298 299 301 303 304 303 300 298 297 295 295 294
227 225 225 227 228 228 222 213 205 207 238 266 269 265 263 265 268 270 273 277 279 277 270 268 272 268 263 274 294 302 297 299 308 314 317 318 318 317 314 312 309 308 308 307 307 308 305 298 294 293 290 285 281 281 286 290 293 297 300 299 299 300 301 302 303 304 304 302 299 298 297 296 295 293
221 220 224 227 225 219 210 203 204 214 227 232 233 236 240 239 234 237 247 257 261 261 259 261 264 264 267 277 290 294 299 311 319 321 321 318 317 318 316 312 308 307 310 312 313 313 310 302 297 294 290 288 287 287 288 290 291 295 299 300 300 302 304 305 305 304 303 300 298 298 298 297 296 293
223 228 231 226 216 209 205 210 218 217 217 220 218 218 221 221 222 233 245 253 258 261 263 266 272 278 278 276 284 302 315 320 320 322 322 318 315 317 315 308 304 307 313 317 319 319 316 310 303 298 295 293 292 294 296 294 291 293 299 302 302 301 304 306 307 305 305 303 301 300 300 299 298 295
224 227 216 202 199 203 211 222 224 220 223 229 229 227 229 230 233 239 245 253 261 270 275 276 277 280 279 281 300 313 317 315 316 320 321 315 312 314 311 303 301 306 311 316 323 328 327 321 313 309 306 301 296 297 300 299 296 296 299 302 303 302 303 307 308 308 311 309 305 302 301 300 299 297
214 208 200 198 203 212 223 229 226 225 229 234 236 239 242 242 241 244 250 258 267 274 276 273 273 274 282 296 306 310 308 309 315 320 320 317 315 313 308 302 303 306 308 314 326 332 328 324 320 317 315 307 299 299 298 295 298 302 302 303 304 303 305 309 310 310 313 311 306 304 303 301 301 300
209 201 201 208 216 225 230 231 231 232 234 237 240 244 247 248 249 251 253 252 244 221 204 221 289 309 305 304 306 307 306 309 316 324 326 320 314 311 308 305 308 313 315 320 328 329 325 324 323 321 318 312 308 311 308 295 295 304 307 307 307 307 310 313 313 313 313 310 306 304 304 303 303 303
205 204 207 215 223 230 233 235 238 238 238 241 244 244 246 248 245 237 220 198 186 178 152 53 23 352 328 318 316 317 317 319 326 329 323 316 314 316 315 311 313 322 326 325 325 325 324 323 320 317 314 315 319 323 325 317 306 310 313 313 313 314 314 315 316 313 311 311 310 306 304 305 306 308
201 205 210 216 224 230 234 240 247 249 247 247 245 239 238 237 225 210 193 180 177 162 80 50 26 4 348 338 334 332 331 329 326 320 315 317 321 323 322 322 325 328 326 322 321 324 324 322 318 312 306 315 324 322 322 322 320 317 313 312 315 318 317 316 316 313 312 315 313 308 306 307 307 310
200 207 214 224 235 237 233 237 246 243 235 230 220 213 212 199 189 181 168 147 123 104 78 15 355 349 341 336 334 331 328 322 316 315 320 327 328 326 328 331 330 326 322 321 324 328 326 322 322 320 313 317 324 309 312 319 322 324 320 315 316 319 319 317 316 315 316 318 315 311 311 308 306 309
203 208 216 229 246 247 207 165 125 111 104 96 106 95 64 119 147 146 135 129 120 82 11 345 337 314 313 322 322 318 317 316 317 324 330 331 331 333 334 330 325 323 323 324 328 332 330 325 326 329 326 315 306 306 310 316 319 324 330 328 321 321 323 322 318 317 319 320 319 317 315 307 304 310
205 210 218 234 248 237 143 127 116 103 87 75 89 61 57 108 139 143 140 136 22 354 339 323 307 299 305 313 311 309 313 320 329 337 336 333 334 335 330 324 321 321 322 324 328 332 332 330 331 331 325 313 306 310 309 306 309 318 330 336 333 330 330 327 322 320 321 324 325 323 319 314 313 318
207 215 225 238 239 209 159 136 119 100 95 109 120 106 90 112 146 158 14 349 351 352 350 342 329 316 315 318 312 311 321 333 341 339 337 335 333 329 324 322 322 323 323 323 325 329 332 333 334 331 324 317 319 321 317 313 314 322 332 341 344 343 340 335 330 326 325 330 333 329 324 324 326 329
214 222 228 226 212 190 175 163 138 122 126 128 120 94 81 93 111 23 348 344 344 354 10 11 356 338 329 327 325 327 338 345 342 337 334 329 325 324 325 326 327 329 328 323 322 327 332 334 334 332 325 322 328 331 327 321 323 327 333 340 346 351 351 349 345 338 333 336 340 335 328 328 330 332
214 217 215 210 202 194 194 196 172 145 143 146 130 48 41 59 48 14 355 345 338 330 325 325 328 331 334 336 339 342 344 342 338 331 326 323 322 325 330 332 333 333 330 324 324 329 333 335 337 336 331 330 337 337 327 317 320 326 331 336 343 350 354 356 354 350 346 346 347 344 338 336 335 334
208 212 211 211 212 210 206 203 197 191 190 194 6 19 24 19 9 2 351 340 323 307 303 300 296 321 337 338 335 335 338 339 334 326 323 326 328 330 332 335 337 336 332 328 329 332 334 336 339 337 331 333 341 337 323 321 325 329 333 336 340 346 352 354 356 356 355 355 357 359 359 355 349 342
212 215 209 203 205 211 211 202 194 192 191 186 184 172 98 32 1 348 345 335 317 307 303 295 286 309 323 319 320 330 336 336 330 327 328 333 334 333 335 338 339 337 335 332 330 331 333 336 338 335 331 333 339 337 332 330 330 332 338 340 340 343 347 351 353 354 355 358 1 4 7 8 4 355
202 192 184 172 170 191 206 203 199 201 201 189 184 181 144 62 15 346 337 320 306 303 299 287 286 309 315 319 331 337 334 331 332 334 335 335 333 334 338 341 339 336 335 333 329 327 329 332 333 332 335 341 345 345 344 339 333 336 344 345 343 344 347 350 351 350 350 354 359 3 7 10 13 13